Simultaneous Nadir Overpasses (SNOs) Predictions

Prediction of SNOs between METOP-A and TERRA Satellite Orbit:

Table of predicted SNOs for the next 14.0 days since TLE Epoch: 3/1/2012
Index Date (METOP-A) Time (METOP-A) METOP-A Lat,Lon Date (TERRA) Time (TERRA) TERRA Lat,Lon Distance(km) Time Diff (sec)
1 03/02/2012 23:58:44 81.29,-132.66 03/02/2012 23:58:59 81.30,-132.50 2.91 15
2 03/03/2012 00:49:24 -81.30, 35.17 03/03/2012 00:48:26 -81.29, 35.01 2.68 58
3 03/05/2012 19:33:08 81.29, -66.23 03/05/2012 19:33:15 81.29, -66.26 0.52 7
4 03/05/2012 20:23:48 -81.30, 101.62 03/05/2012 20:22:41 -81.31, 101.65 0.95 67
5 03/08/2012 14:16:53 -81.29,-167.67 03/08/2012 14:18:04 -81.29,-167.49 3.04 71
6 03/08/2012 15:07:32 81.29, 0.16 03/08/2012 15:07:30 81.30, 0.27 1.78 2
7 03/11/2012 09:51:15
